Location: Salt Lake City
(40.7596°N, 111.8868°W)
Time: 11:44:42
(UTC-06:00)

ISS - Visible Passes

Search period start: 15 May 2026 00:00
Search period end: 25 May 2026 00:00
Orbit: 414 x 424 km, 51.6° (Epoch: 15 May)

Date Brightness Start Highest point End Pass type
(mag) Time Alt. Az. Time Alt. Az. Time Alt. Az.
15 May -0.8 21:31:06 10° NW 21:33:06 15° NNW 21:35:07 10° NNE visible
15 May -0.8 23:09:03 10° NNW 23:10:58 14° N 23:12:53 10° NE visible
16 May -0.6 00:45:19 10° NW 00:45:50 13° NW 00:45:50 13° NW visible
16 May -0.8 22:21:21 10° NNW 22:23:02 13° N 22:24:43 10° NE visible
16 May -1.4 23:57:47 10° NW 23:59:45 23° N 23:59:45 23° N visible
17 May -0.8 21:33:29 10° NNW 21:35:05 13° N 21:36:42 10° NNE visible
17 May -1.6 23:10:16 10° NNW 23:12:52 20° NNE 23:13:40 19° NE visible
18 May -1.1 22:22:44 10° NNW 22:24:58 16° NNE 22:27:12 10° ENE visible
18 May -1.5 23:58:59 10° NW 00:00:32 25° NW 00:00:32 25° NW visible
19 May -1.0 21:35:08 10° NNW 21:37:02 14° N 21:38:57 10° NE visible
19 May -2.6 23:11:24 10° NW 23:14:29 37° NNE 23:14:29 37° NNE visible
20 May -2.0 22:23:51 10° NW 22:26:44 26° NNE 22:28:27 17° ENE visible
21 May -1.2 00:00:26 10° WNW 00:01:23 17° WNW 00:01:23 17° WNW visible
21 May -1.6 21:36:18 10° NNW 21:38:52 20° NNE 21:41:26 10° ENE visible
21 May -3.2 23:12:39 10° NW 23:15:22 55° WNW 23:15:22 55° WNW visible
22 May -3.4 22:24:58 10° NW 22:28:17 58° NNE 22:29:23 36° E visible
23 May -2.7 21:37:20 10° NW 21:40:29 37° NNE 21:43:25 11° E visible
23 May -2.0 23:14:19 10° WNW 23:16:22 24° WSW 23:16:22 24° WSW visible
24 May -3.2 22:26:20 10° WNW 22:29:33 46° SW 22:30:27 36° S visible
